Regional Weather Roundup
Issued by NWS Glasgow, MT

Home | Current Version | Previous Version | Text Only | Print | Product List | Glossary On
Versions: 1 2 3 4 5 6 7 8 9 10 11 12 13 14 15 16 17 18 19 20 21 22 23 24 25 26 27
000
ASUS45 KGGW 242215
RWRGGW
HOURLY WEATHER ROUNDUP FOR NORTHEAST MONTANA
NATIONAL WEATHER SERVICE GLASGOW MONTANA
400 PM MDT FRI OCT 24 2014

NOTE: "FAIR" INDICATES FEW OR NO CLOUDS BELOW 12,000 FEET WITH NO
SIGNIFICANT WEATHER AND/OR OBSTRUCTIONS TO VISISBILITY.

NORTHEAST MONTANA


CITY           SKY/WX    TMP DP  RH WIND       PRES   REMARKS
GLASGOW        MOSUNNY   58  29  33 W13       29.98R
PLENTYWOOD       N/A     59  27  29 W16         N/A
WOLF POINT     CLOUDY    61  27  27 W21G26    29.99R
JORDAN           N/A     59  31  34 W8        30.02S
WINNETT          N/A     56  40  55 S1          N/A
SIDNEY         CLOUDY    61  27  27 W15       30.00S
GLENDIVE       CLOUDY    59  28  31 NW12      30.03R
MALTA            N/A     61  30  31 W16G24      N/A
SCOBEY           N/A     59  25  27 W21G26    29.94R

FORT PECK REPORTS


CITY           SKY/WX    TMP DP  RH WIND       PRES   REMARKS
FORT PECK        N/A     59  30  33 W20         N/A
THE PINES        N/A     61  26  26 W7          N/A

SOUTHEAST MONTANA


CITY           SKY/WX    TMP DP  RH WIND       PRES   REMARKS
BILLINGS       CLOUDY    56  37  49 E6        30.06R
MILES CITY     CLOUDY    60  31  33 NW9       30.06R
BAKER          CLOUDY    59  31  34 NW10      30.05R
LIVINGSTON     CLOUDY    55  41  59 SW7       30.07S

CENTRAL MONTANA


CITY           SKY/WX    TMP DP  RH WIND       PRES   REMARKS
HAVRE          CLOUDY    57  28  33 W22       30.00S
LEWISTOWN      CLOUDY    56  35  45 CALM      30.06R
GREAT FALLS    CLOUDY    55  34  45 SW15      30.03R
CUT BANK       PTSUNNY   55  28  35 W17G25    30.02R
HELENA         CLOUDY    57  37  47 W6        30.09R
BUTTE          LGT RAIN  47  38  71 CALM      30.13S
BOZEMAN        LGT RAIN  48  42  80 CALM      30.12S

WESTERN MONTANA


CITY           SKY/WX    TMP DP  RH WIND       PRES   REMARKS
MISSOULA       CLOUDY    51  41  68 SE7       30.11S
KALISPELL      NOT AVBL

NORTH DAKOTA


CITY           SKY/WX    TMP DP  RH WIND       PRES   REMARKS
WILLISTON      PTSUNNY   61  26  26 W17G26    29.95R
DICKINSON      PTSUNNY   58  31  35 W14       29.98R
MINOT          SUNNY     63  27  25 W26G32    29.87R
BISMARCK       PTSUNNY   66  36  32 NW16G23   29.94R

SOUTHERN SASKATCHEWAN


CITY           SKY/WX    TMP DP  RH WIND       PRES   REMARKS
REGINA         MOSUNNY   55  32  41 W22G32    29.86R
MOOSE JAW      MOSUNNY   55  32  41 W20       29.90R
ESTEVAN        MOSUNNY   59  34  38 W20G31    29.87R
SWIFT CURRENT  SUNNY     54  28  37 NW18      29.91R




USA.gov is the U.S. government's official web portal to all federal, state and local government web resources and services.